Location: Fort Collins
(40.5850°N, 105.0840°W)
Time: 05:36:36
(UTC-06:00)

Daily predictions for brighter satellites

Satellite Brightness Start Highest point End
(mag) Time Altitude Azimuth Time Altitude Azimuth Time Altitude Azimuth
CZ-2C R/B 4.3 00:13:58 10° N 00:16:56 30° NNW 00:16:56 30° NNW
ATLAS 5 CENTAUR R/B 3.7 00:27:54 10° NNW 00:31:18 36° NNW 00:31:18 36° NNW
Mayak 1.9 00:41:27 10° N 00:41:46 12° N 00:41:46 12° N
Lacrosse 5 4.4 00:42:56 10° NW 00:44:02 16° NW 00:44:02 16° NW
Cosmos 1943 Rocket 4.4 01:12:40 10° NW 01:13:56 17° NW 01:13:56 17° NW
CZ-4C R/B 4.2 01:25:23 21° NW 01:25:41 21° NW 01:30:13 10° NNE
ADEOS Rocket 4.2 01:45:21 10° N 01:50:40 38° NW 01:50:40 38° NW
CZ-2D R/B 4.5 01:49:18 10° NE 01:51:22 15° ENE 01:51:22 15° ENE
Cosmos 1833 Rocket 4.1 02:30:34 31° E 02:30:34 31° E 02:34:25 10° NE
Cosmos 2034 Rocket 4.3 02:36:11 63° NNE 02:36:11 63° NNE 02:41:25 10° N
Resurs 1-4 Rocket 3.3 02:34:04 10° NNE 02:37:55 37° ENE 02:37:55 37° ENE
SL-16 R/B 2.7 02:48:35 68° ENE 02:48:39 68° ENE 02:54:52 10° N
Cosmos 1092 Rocket 4.4 02:45:55 10° N 02:52:01 54° E 02:52:39 52° ESE
Meteor 2-4 Rocket 4.4 02:54:29 46° N 02:54:29 46° N 02:58:17 10° N
Cosmos 1607 4.1 02:56:11 67° E 02:56:11 67° E 03:02:13 10° NE
Lacrosse 4 Rocket 3.0 03:02:25 10° N 03:06:28 34° NE 03:06:34 34° ENE
Exosat Rocket 4.2 03:08:29 10° NNW 03:14:25 81° ENE 03:18:11 33° SSE
Cosmos 2278 3.8 03:09:49 10° NNW 03:14:44 68° NNW 03:14:44 68° NNW
Cosmos 1980 Rocket 3.3 03:19:32 10° N 03:24:50 41° ENE 03:30:08 10° SE
Cosmos 909 Rocket 3.9 03:22:11 10° NNW 03:28:27 79° WSW 03:29:34 62° S
Cosmos 1697 Rocket 2.7 03:23:05 10° NNW 03:28:47 77° ENE 03:30:00 56° SE
Meteor 1-15 Rocket 4.3 03:24:39 10° NNW 03:30:13 68° WNW 03:30:13 68° WNW
Cosmos 2082 Rocket 2.0 03:31:01 81° WNW 03:31:01 81° WNW 03:36:38 10° NNE
Nadezhda 4 Rocket 4.4 03:26:50 10° NNW 03:31:50 45° WNW 03:31:50 45° WNW
CZ-2D R/B 2.3 03:27:44 10° N 03:32:42 61° NW 03:32:42 61° NW
Cosmos 371 Rocket 3.9 03:34:51 47° NNW 03:34:51 47° NNW 03:38:45 10° N
CZ-2D R/B 4.4 03:31:05 10° NNE 03:34:42 43° E 03:34:42 43° E
ATLAS 3B R/B 4.5 03:32:22 14° SSE 03:36:40 23° ESE 03:41:58 10° ENE
SL-8 R/B 4.0 03:38:31 60° ESE 03:38:31 60° ESE 03:42:29 10° ESE
Cosmos 1634 Rocket 3.8 03:37:39 67° SSW 03:38:31 82° W 03:44:47 10° N
Cosmos 1356 Rocket 4.2 03:39:24 47° ENE 03:39:24 47° ENE 03:42:53 10° NNE
Cosmos 1570 Rocket 4.0 03:42:04 68° SSE 03:42:35 74° ESE 03:47:52 10° NNE
Cosmos 1867 3.4 03:44:16 10° NNW 03:49:45 82° WSW 03:52:20 32° SSE
Cosmos 1606 Rocket 4.0 03:45:53 10° N 03:50:09 58° E 03:50:58 48° SE
Helios 1A Rocket 3.1 03:47:13 10° NNE 03:50:56 70° N 03:50:56 70° N
Spot 4 Rocket 4.0 03:47:48 10° N 03:52:53 61° WNW 03:53:05 60° W
Cosmos 2279 Rocket 4.0 03:53:00 39° S 03:55:29 81° E 04:01:46 10° N
USA 215 3.4 03:49:49 10° NE 03:56:17 62° SE 03:58:39 40° SSW
H-2A R/B 4.5 03:55:09 10° NNW 03:57:01 18° NW 03:57:01 18° NW
ARIANE 5 R/B 2.6 03:53:36 10° N 03:58:43 56° WNW 03:59:08 54° W
Cosmos 2228 4.0 03:55:27 10° N 03:59:34 44° ENE 04:02:28 17° SE
Cosmos 1892 Rocket 4.0 03:59:23 45° SSE 04:00:27 60° E 04:04:48 10° NNE
Lacrosse 5 rocket 1.8 04:02:17 50° NW 04:02:17 50° NW 04:06:16 10° NE
Cosmos 2026 Rocket 4.0 04:00:01 10° NNW 04:06:19 64° W 04:08:40 39° SSW
Cosmos 468 Rocket 4.0 04:05:41 46° S 04:07:18 82° ESE 04:12:38 10° NNE
Cosmos 1766 3.6 04:03:59 10° N 04:07:50 61° E 04:09:04 38° SE
Iridium 4 Rocket 4.5 04:09:51 25° NW 04:09:51 25° NW 04:12:24 10° NNW
ADEOS II 2.4 04:04:20 10° NNE 04:09:33 64° E 04:12:23 27° S
Cosmos 1544 3.5 04:06:45 10° NNW 04:09:36 51° NNW 04:09:36 51° NNW
Cosmos 1833 Rocket 3.5 04:12:16 32° W 04:13:15 34° WNW 04:18:22 10° N
Cosmos 304 Rocket 3.8 04:14:41 52° WSW 04:15:27 60° WNW 04:20:15 10° NNE
Cosmos 1025 Rocket 4.2 04:16:34 27° WNW 04:16:34 27° WNW 04:19:34 10° NNW
ADEOS 3.6 04:12:41 10° N 04:17:51 65° WNW 04:19:27 43° SW
Resurs 1-4 Rocket 3.3 04:14:29 10° NNW 04:18:37 24° WNW 04:19:00 24° WNW
Cosmos 2360 4.1 04:19:36 10° NNW 04:25:14 65° WSW 04:30:50 10° S
Cosmos 1655 Rocket 4.0 04:21:14 10° NNW 04:27:31 65° W 04:32:48 15° S
Okean O Rocket 4.2 04:25:49 10° NE 04:28:48 18° E 04:31:45 10° SE
USA 238 DEB 4.0 04:26:57 21° SSW 04:31:41 62° ESE 04:38:31 10° NE
USA 238 4.0 04:26:56 20° SSW 04:31:41 62° ESE 04:38:31 10° NE
SL-16 R/B 4.0 04:33:40 18° W 04:33:40 18° W 04:37:00 10° NW
Meteor 1-21 4.1 04:36:26 19° SSW 04:40:35 80° W 04:46:15 10° N
Cosmos 2266 Rocket 4.0 04:34:49 10° N 04:40:54 82° E 04:47:02 10° S
Lacrosse 4 Rocket 3.3 04:41:26 10° NW 04:42:46 16° WNW 04:42:46 16° WNW
Cosmos 841 Rocket 3.5 04:43:37 17° SSW 04:47:35 81° ESE 04:52:47 10° NNE
OAO 3 Rocket 4.1 04:51:59 25° SW 04:53:05 28° SSW 04:57:05 10° SE
UNKNOWN OBJECT B 4.2 04:50:37 10° NNW 04:53:31 20° WNW 04:53:59 20° WNW
Cosmos 1733 3.7 04:50:48 10° N 04:54:38 62° E 04:58:27 10° SSE
COSMOS 2487 4.5 04:59:55 14° WNW 05:00:14 14° WNW 05:02:15 10° NNW
Cosmos 1470 3.3 05:00:19 10° N 05:04:16 62° E 05:08:11 10° SSE
Cosmos 44 3.5 05:00:07 10° NNW 05:05:23 86° ENE 05:10:46 10° SSE
Cosmos 2360 Rocket 3.8 05:01:07 10° N 05:06:21 38° ENE 05:11:32 10° SE
Cosmos 1980 Rocket 3.0 05:03:58 10° NW 05:08:35 27° WSW 05:13:13 10° SSW
NOSS 3-2 (C) 4.4 05:03:22 10° S 05:08:52 45° ESE 05:14:54 10° NE
PSLV R/B 3.5 05:06:59 10° N 05:11:10 62° WNW 05:15:17 10° SSW
Cosmos 1697 Rocket 4.3 05:09:15 10° WNW 05:11:36 14° W 05:11:36 14° W
Cosmos 2058 Rocket 4.0 05:10:31 10° NNW 05:14:16 28° W 05:17:44 11° SW
Cosmos 540 Rocket 3.5 05:09:46 10° SSW 05:14:53 81° ESE 05:20:02 10° NNE
Cosmos 1812 Rocket 3.7 05:11:01 10° N 05:15:31 84° E 05:19:58 10° S
BREEZE-M R/B 3.5 05:13:06 18° W 05:15:43 60° NNW 05:22:26 10° ENE
Cosmos 2082 Rocket 4.2 05:13:18 10° WNW 05:16:00 13° NW 05:18:42 10° NNW
Cosmos 1763 Rocket 4.1 05:12:55 16° SW 05:16:44 39° WNW 05:21:42 10° N
SL-16 R/B 2.1 05:12:13 10° NNW 05:17:53 72° WSW 05:23:29 10° SSE
Cosmos 1602 Rocket 3.6 05:15:49 10° SSW 05:20:04 57° W 05:24:21 10° N
Cosmos 44 Rocket 3.5 05:16:16 10° NNW 05:21:25 82° ENE 05:26:37 10° SSE
Cosmos 1953 2.3 05:19:41 10° NNW 05:23:42 61° W 05:27:41 10° S
ATLAS 3B R/B 2.8 05:19:39 10° SW 05:26:48 71° NW 05:33:44 10° NNE
NOSS 3-2 (A) 3.5 05:21:43 10° SSW 05:27:34 85° ESE 05:34:04 10° NE
Cosmos 1707 2.7 05:24:55 10° S 05:28:46 82° W 05:32:39 10° N
PSLV R/B 3.9 05:26:02 10° N 05:29:49 52° WNW 05:33:30 10° SSW
Cosmos 1626 Rocket 4.2 05:29:58 10° SW 05:33:54 35° WNW 05:37:53 10° N
Cosmos 1125 Rocket 3.8 05:28:42 10° NNW 05:34:01 76° ENE 05:39:17 10° SSE
PAYLOAD B 4.3 05:29:22 10° NNE 05:35:01 89° WNW 05:40:37 10° SSW
Cosmos 2322 Rocket 2.3 05:29:59 10° NNW 05:35:28 53° WSW 05:40:53 10° S
Meteor 1-31 Rocket 2.8 05:31:52 10° NNE 05:35:46 87° ESE 05:39:36 10° SSW
Cosmos 1937 Rocket 4.5 05:31:40 10° NW 05:35:49 25° W 05:39:55 10° SSW
Cosmos 1833 4.4 05:30:36 10° SSW 05:36:23 80° ESE 05:42:12 10° NNE
USA 215 3.9 05:33:00 10° NE 05:39:06 44° NNW 05:45:12 10° W
Lacrosse 5 rocket 3.7 05:40:23 10° NW 05:42:14 13° NNW 05:44:02 10° N
BREEZE-M DEB (TANK) 3.4 05:35:19 10° WNW 05:43:50 40° SW 05:46:51 10° SSE
Cosmos 1238 Rocket 4.1 05:37:36 10° S 05:43:54 82° W 05:50:40 10° N
SJ 16-02 1.3 05:41:57 10° NNW 05:46:20 68° WSW 05:50:41 10° S
ADEOS II 3.7 05:45:26 10° NNW 05:48:43 17° WNW 05:51:59 10° W
CENTAUR R/B 3.9 05:45:18 10° S 05:50:40 39° ESE 05:56:44 10° NE
Cosmos 1553 Rocket 4.1 05:47:19 10° S 05:53:43 88° W 06:00:11 10° N
